Regional Weather Roundup
Issued by NWS

Home | Current Version | Previous Version | Graphics & Text | Print | Product List | Glossary On
Versions: 1 2 3 4 5 6 7 8 9 10 11 12 13 14 15 16 17 18 19 20 21 22 23 24 25 26 27 28 29 30 31 32 33 34 35 36 37 38 39 40 41 42 43 44 45 46 47 48 49 50
000
ASUS43 KBIS 210720
RWRND

NORTH DAKOTA REGIONAL WEATHER ROUNDUP
NATIONAL WEATHER SERVICE BISMARCK ND
200 AM CDT SUN SEP 21 2014

NOTE: "FAIR" INDICATES FEW OR NO CLOUDS BELOW 12,000 FEET WITH NO
SIGNIFICANT WEATHER AND/OR OBSTRUCTIONS TO VISIBILITY.


NDZ001>003-009>011-017-210800-
NORTHWEST NORTH DAKOTA

CITY           SKY/WX    TMP DP  RH WIND       PRES   REMARKS
WILLISTON      CLEAR     52  37  56 NW12      30.21R
MINOT          CLEAR     52  40  63 W12       30.14R
MINOT AFB      CLEAR     49  44  83 NW9       30.14R
$$

NDZ018>021-031>035-040>046-210800-
SOUTHWEST NORTH DAKOTA

CITY           SKY/WX    TMP DP  RH WIND       PRES   REMARKS
BISMARCK       CLEAR     51  42  71 W6        30.16R
DICKINSON      CLEAR     44  35  70 W7        30.21S
GARRISON         N/A     49  41  74 NW9       30.16R
HETTINGER ARPT CLEAR     45  34  65 NW6       30.25R
$$

NDZ004>008-012>016-024-026-027-054-210800-
NORTHEAST NORTH DAKOTA

CITY           SKY/WX    TMP DP  RH WIND       PRES   REMARKS
GRAND FORKS    CLEAR     51  48  89 NW9       30.01R
GRND FRKS AFB  CLEAR     52  51  97 N9        30.02R
DEVILS LAKE    CLEAR     50  43  76 NW7       30.07R
$$

NDZ022-023-025-028>030-036>039-047>053-210800-
SOUTHEAST NORTH DAKOTA

CITY           SKY/WX    TMP DP  RH WIND       PRES   REMARKS
FARGO          PTCLDY    54  49  83 NW9       30.01R
JAMESTOWN      CLOUDY    56  45  66 NW13      30.07R
$$



USA.gov is the U.S. government's official web portal to all federal, state and local government web resources and services.